Resultados

400 C/V Electronico
Fecha Serie Viento Presión Humedad Temperatura
25-06-2023 Final_A
Puesto Andanivel Nombre Dia Mes Año Pais Marca
01 1 3 Coronel Agustin 19 7 2006 EMAPM - 0.56.61
02 175 4 Muñoz German 18 7 2007 UCYD ANSA 0.57.82
03 174 2 Selada Semenzato Julian Ignacio 9 1 2007 UNCAM AMA 1.00.33
04 88 6 Coronel Guillermo 19 7 2006 EMAPM - 1.00.35
05 81 5 Grasso Santino 9 3 2006 VYR ASA 1.00.69
06 105 3 Lucas Rojas 25 4 2006 AAPS - 1.01.92
07 108 3 Miranda Emilio 4 6 2006 ULP - 1.02.53
08 114 5 Lima Facundo 12 4 2006 ULP 1.02.95
09 102 5 Vivaldo Ezequiel 10 9 2006 CTSC CTS 1.03.02
10 113 6 Jaime Gustavo Uriel 28 12 2007 EMART AADV 1.03.20
11 86 1 Venturi Uriarte Ignacio 24 03 2008 - EMAVE 1.03.25
12 109 2 Monzon Hassan Andres De Jesus 12 8 2006 ACDEM - 1.04.60
13 57 5 FUENTEBUENA TIZIANO 6 8 2006 CCCAM 1.04.78
14 192 5 Blanco Alejandro 26 11 2007 EIDEV - 1.04.79
15 178 6 Miranda Adaro, Matias Nicolas 16 12 2006 MPYC - 1.04.91
16 196 4 Tapia Bautista Marcelo 6 5 2008 CABC AACCC 1.05.12
17 187 2 Scelzi Benicio Carlos 1 6 2007 CEFCU - 1.05.17
18 91 3 Zalazar Valentin Yair 17 9 2007 ALMA AMA 1.05.24
19 117 4 Patrón Nicolas 10 10 2006 CMDB1 1.05.29
20 191 6 Lopez Leandro Leonardo 1 2 2006 CTSC CTS 1.05.34
21 190 5 Ansaloni Martiniano José 12 6 2007 CJMPC - 1.05.80
22 179 3 Castinelli Leonardo Benjamin 6 12 2007 CITUP AMA 1.05.85
23 186 1 Alvarez Tomas 26 11 2006 CCCAM 1.06.84
24 115 1 Bernardino Jesus Nicolas 20 11 2007 GARIN FAM 1.06.91
25 193 4 Grangeat Matias 16 3 2006 EPAS - 1.06.96
26 197 1 Gallardo Matias 23 10 2007 CABC AACCC 1.07.62
27 35 1 Salva Juan Cruz 24 9 2008 ULP - 1.07.73
28 189 4 Mendoza Emanuel Maximiliano 12 3 2006 CTSC CTS 1.09.47
29 194 2 Moreno Agustin 22 6 2007 TFT - 1.10.34
30 139 3 Carranza Benjamin 4 7 2008 EMAMC AASC 1.11.72
31 195 6 PEREZ Maximo 30 5 2006 CEFCU - 1.11.95
32 76 2 Iturre Petit Lautaro 2 11 2007 VYR ASA 1.19.24
99 119 2 Torres Julian Ignacio 11 5 2006 CTSC DNF
99 188 4 Godoy Lautaro 22 2 2008 VYR ASA DNF